STARLINK-4718, 53773

Orbit data source: Space-Track

STARLINK-4718, 53773 is a payload satellite owned by SpaceX/Seattle (US) in LEO that was launched on Sun, 11 Sep 2022 UTC via an FALCON 9 launch vehicle from the Air Force Eastern Test Range (AFETR). Payload-class satellites include a variety of spacecraft equipped with specific instruments for various scientific and technological missions. These include communications satellites like Starlink; space stations such as the ISS; scientific satellites like the Hubble; Earth observation satellites from companies like Planet Labs, Umbra, and HawkEye 360; GPS; miniature CubeSats for education and research; and military/defense satellites.

Loading next visibility...
Identifier
53773, 2022-111A
Orbit
LEO
Last TLE update
1 day ago
Origin
Manufacturer
SpaceX/Seattle
Mission
Operational Commercial Communications
Bus & Motor
STARLINK, Unknown motor
Mass
305 kg wet, ~290 kg dry
Launch date (UTC)
2022-09-11 (3 years ago)
Launch vehicle
FALCON 9
Launch site
Air Force Eastern Test Range (AFETR)
Object type
Payload
Rocket body
Debris
Shape & HBR
Box + 1 Pan, 8.86 m
Radar Cross Section
13.562 m², Large (>1 m²)

Expand to show TLE details & history

TLE from 1 day ago
0 STARLINK-4718
1 53773U 22111A   25128.50021365 -.00000032  00000-0  16098-4 0  9996
2 53773  53.2189 214.0917 0001534  98.8045 261.3120 15.08840055146671
Epoch: 2025-05-08T12:00Z
Definitive object data (Epoch: 2025-05-08T12:00:18.459Z)
Latitude
-0.00009°
Longitude
167.4449°
Altitude
540.801 km
Speed
7.593 km/s
True Right ascension
14h 16m 21s
True Declination
0° 00' 00"
Sunlit
Object was in full shadow at TLE epoch
Visualization TLE readout
Latitude
18.71902°
Longitude
-32.92696°
Altitude
539.489 km
Speed
7.596 km/s
Apparent Right ascension
21h 45m 21s
Apparent Declination
-27° 30' 54"
Sunlit
Object is in daylight
Visualization observer readout
Local Sidereal Time
03:04:55
Azimuth
242.515° WSW
Elevation
-10.198°
Doppler factor
1
Orbital elements
Apogee altitude
541.049 km
Perigee altitude
538.927 km
Semi-major axis
6,918.125 km
Eccentricity
0.0001534
Inclination
53.2189°
RAAN
214.0917°
Arg. of periapsis
98.8045°
True anomaly
261.29462°
Mean anomaly
261.312°
Eccentric anomaly
261.30331°
Mean motion
3.7719 °/min
BSTAR
0.000016098
Orbital period
95.44 mins
Loading maneuver chart data...
Loading SW <> Apogee altitude chart data...
Loading historical data...
Loading historical data...
Loading historical data...
Loading historical data...
Loading historical data...
Loading historical data...
Loading historical data...

STARLINK-4718 Visibility forecast

Observer location: undefined°, undefined°

Span
Click to sort rows by Start time (UTC) header in descending order
Start Az.
Max El. time (UTC)
Max El. Az.
Max El.
End time (UTC)
End Az.
6 mins2025-05-10 07:05:02.576Z182.168° SSW2025-05-10 07:08:02.576Z121.144° SE24.548°2025-05-10 07:11:02.576Z72.291° E
5 mins2025-05-10 08:45:02.576Z271.449° WNW2025-05-10 08:47:02.576Z332.867° NNW33.722°2025-05-10 08:50:02.576Z34.991° NE
5 mins2025-05-10 13:46:02.576Z338.979° N2025-05-10 13:48:02.576Z23.856° NE27.626°2025-05-10 13:51:02.576Z87.365° E
6 mins2025-05-10 15:25:02.576Z289.057° WNW2025-05-10 15:28:02.576Z209.54° SW32.425°2025-05-10 15:31:02.576Z158.501° S
|